DW6022 Weather Reports


time (UTC)temp
F
wind
direction
speed
knots
gust
knots
rain 1hr
in
rain 24hr
in
rain mn
in
humidity
%
barometer
mb
20260503053155 59 17 1.7 2.6 0.00 0.00 0.00 64 1019.4
20260503052712 58 5 1.7 2.6 0.00 0.00 0.00 64 1019.4
20260503052200 58 5 1.7 2.6 0.00 0.00 0.00 65 1019.4
20260503051730 57 5 0.9 2.6 0.00 0.00 0.00 65 1019.4
20260503051209 57 5 0.9 2.6 0.00 0.00 0.00 64 1019.4
20260503050708 57 5 0.0 2.6 0.00 0.00 0.00 65 1019.4
20260503050204 57 5 0.9 3.5 0.00 0.00 0.00 65 1019.3
20260503045704 57 5 1.7 3.5 0.00 0.00 0.00 65 1019.3
20260503045207 56 360 1.7 3.5 0.00 0.00 0.00 65 1019.4
20260503044706 56 355 1.7 3.5 0.00 0.00 0.00 65 1019.3
20260503044226 56 355 1.7 3.5 0.00 0.00 0.00 65 1019.3
20260503043707 56 355 1.7 2.6 0.00 0.00 0.00 65 1019.3
20260503043155 56 355 0.0 0.0 0.00 0.00 0.00 65 1019.2
20260503042659 56 355 0.0 0.0 0.00 0.00 0.00 65 1019.2
20260503042156 56 355 0.0 0.9 0.00 0.00 0.00 65 1019.2
20260503041653 56 355 0.0 2.6 0.00 0.00 0.00 64 1019.2
20260503041223 56 355 1.7 2.6 0.00 0.00 0.00 64 1019.2
20260503040723 56 355 0.0 0.0 0.00 0.00 0.00 63 1019.2
20260503040209 57 355 0.0 0.0 0.00 0.00 0.00 62 1019.2
20260503035709 57 355 0.0 2.6 0.00 0.00 0.00 62 1019.2
20260503035212 57 355 0.9 2.6 0.00 0.00 0.00 62 1019.1
20260503034709 57 355 1.7 2.6 0.00 0.00 0.00 62 1019.1
20260503034229 57 355 0.9 2.6 0.00 0.00 0.00 62 1019.2
20260503033712 57 355 0.9 2.6 0.00 0.00 0.00 62 1019.1
20260503033159 57 355 1.7 3.5 0.00 0.00 0.00 62 1019.2
20260503032731 57 355 2.6 3.5 0.00 0.00 0.00 62 1019.2
20260503032213 57 355 1.7 3.5 0.00 0.00 0.00 63 1019.2
20260503031732 57 355 1.7 3.5 0.00 0.00 0.00 62 1019.2
20260503031228 57 355 1.7 2.6 0.00 0.00 0.00 62 1019.2
20260503030708 57 355 0.0 0.0 0.00 0.00 0.00 61 1019.3
20260503030212 57 355 0.0 0.0 0.00 0.00 0.00 61 1019.3
20260503025706 57 355 0.0 0.0 0.00 0.00 0.00 61 1019.3
20260503025226 57 355 0.0 0.0 0.00 0.00 0.00 61 1019.3
20260503024702 57 355 0.0 0.0 0.00 0.00 0.00 60 1019.3
20260503024157 57 355 0.0 0.0 0.00 0.00 0.00 60 1019.3
20260503023733 57 355 0.0 0.0 0.00 0.00 0.00 60 1019.3
20260503023159 58 355 0.0 0.0 0.00 0.00 0.00 60 1019.3
20260503022714 58 355 0.0 0.0 0.00 0.00 0.00 60 1019.4
20260503022211 58 355 0.0 0.0 0.00 0.00 0.00 60 1019.4
20260503021706 57 355 0.0 0.0 0.00 0.00 0.00 61 1019.4
20260503021225 57 355 0.0 0.0 0.00 0.00 0.00 61 1019.5
20260503020702 57 355 0.0 0.0 0.00 0.00 0.00 62 1019.6
20260503020207 57 355 0.0 0.0 0.00 0.00 0.00 62 1019.6
20260503015722 57 355 0.0 0.0 0.00 0.00 0.00 62 1019.7
20260503015201 57 355 0.0 0.0 0.00 0.00 0.00 61 1019.6
20260503014653 57 355 0.0 0.0 0.00 0.00 0.00 61 1019.7
20260503014211 57 355 0.0 0.0 0.00 0.00 0.00 63 1019.7
20260503013710 57 355 0.0 0.0 0.00 0.00 0.00 63 1019.7
20260503013154 57 355 0.0 0.0 0.00 0.00 0.00 63 1019.7
20260503012712 57 355 0.0 0.0 0.00 0.00 0.00 63 1019.8
20260503012208 56 355 0.0 0.0 0.00 0.00 0.00 64 1019.8
20260503011729 56 355 0.0 0.0 0.00 0.00 0.00 64 1019.8
20260503011204 56 355 0.0 0.0 0.00 0.00 0.00 64 1019.8
20260503010723 56 355 0.0 0.0 0.00 0.00 0.00 63 1019.9
20260503010205 56 355 0.0 0.0 0.00 0.00 0.00 63 1020.0
20260503005704 56 355 0.0 0.0 0.00 0.00 0.00 63 1020.0
20260503005206 56 355 0.0 0.0 0.00 0.00 0.00 63 1020.1
20260503004719 57 355 0.0 0.0 0.00 0.00 0.00 63 1020.1
20260503004154 57 355 0.0 0.0 0.00 0.00 0.00 62 1020.2
20260503003728 57 355 0.0 0.0 0.00 0.00 0.00 61 1020.3
20260503003209 56 355 0.0 0.0 0.00 0.00 0.00 62 1020.3
20260503002705 56 355 0.0 0.0 0.00 0.00 0.00 61 1020.3
20260503002208 57 355 0.0 0.0 0.00 0.00 0.00 62 1020.4
20260503001708 57 355 0.0 0.0 0.00 0.00 0.00 62 1020.4
20260503001210 57 355 0.0 0.0 0.00 0.00 0.00 61 1020.5
20260503000705 57 355 0.0 0.0 0.00 0.00 0.00 60 1020.5
20260503000158 57 355 0.0 0.0 0.00 0.00 0.00 62 1020.6
20260502235713 57 355 0.0 0.0 0.00 0.00 0.00 60 1020.7
20260502235212 57 355 0.0 0.0 0.00 0.00 0.00 59 1020.7
20260502234707 57 355 0.0 0.0 0.00 0.00 0.00 58 1020.9
20260502234201 57 355 0.0 0.0 0.00 0.00 0.00 59 1020.9
20260502233706 58 355 0.0 0.0 0.00 0.00 0.00 58 1020.9
20260502233209 58 355 0.0 0.0 0.00 0.00 0.00 57 1020.9
20260502232700 58 355 0.0 0.0 0.00 0.00 0.00 57 1020.9
20260502232159 58 355 0.0 0.0 0.00 0.00 0.00 58 1020.9
20260502231708 58 355 0.0 0.0 0.00 0.00 0.00 58 1020.9
20260502231212 58 355 0.0 1.7 0.00 0.00 0.00 58 1021.0
20260502230158 58 355 1.7 2.6 0.00 0.00 0.00 57 1021.0
20260502225712 58 355 0.0 1.7 0.00 0.00 0.00 58 1021.0
20260502225209 58 355 0.9 1.7 0.00 0.00 0.00 57 1021.0
20260502224707 58 355 0.9 1.7 0.00 0.00 0.00 56 1021.0
20260502224201 58 355 0.0 0.0 0.00 0.00 0.00 57 1021.0
20260502223700 58 355 0.0 0.0 0.00 0.00 0.00 57 1021.0
20260502223205 58 355 0.0 0.0 0.00 0.00 0.00 57 1021.0
20260502222727 58 355 0.0 0.0 0.00 0.00 0.00 56 1021.1
20260502222204 58 355 0.0 0.0 0.00 0.00 0.00 55 1021.1
20260502221714 59 355 0.0 0.0 0.00 0.00 0.00 56 1021.1
20260502221213 59 355 0.0 0.0 0.00 0.00 0.00 54 1021.2
20260502220658 59 355 0.0 0.9 0.00 0.00 0.00 53 1021.2
20260502220208 60 355 0.0 0.9 0.00 0.00 0.00 53 1021.2
20260502215656 60 351 0.0 0.0 0.00 0.00 0.00 52 1021.2
20260502215213 60 351 0.0 0.0 0.00 0.00 0.00 51 1021.2
20260502214707 60 351 0.0 0.0 0.00 0.00 0.00 50 1021.2
20260502214209 60 351 0.0 0.0 0.00 0.00 0.00 50 1021.2
20260502213707 60 355 0.0 3.5 0.00 0.00 0.00 50 1021.2
20260502213207 61 355 1.7 3.5 0.00 0.00 0.00 49 1021.1
20260502212702 61 355 0.9 2.6 0.00 0.00 0.00 49 1021.2
20260502212159 61 355 1.7 3.5 0.00 0.00 0.00 49 1021.2
20260502211710 61 355 1.7 3.5 0.00 0.00 0.00 49 1021.2
20260502211209 61 355 1.7 3.5 0.00 0.00 0.00 48 1021.2
20260502210704 61 355 1.7 3.5 0.00 0.00 0.00 49 1021.2
20260502210209 61 355 2.6 3.5 0.00 0.00 0.00 48 1021.2
20260502205656 61 355 2.6 3.5 0.00 0.00 0.00 48 1021.2
20260502205214 61 355 2.6 3.5 0.00 0.00 0.00 48 1021.2
20260502204709 61 355 1.7 3.5 0.00 0.00 0.00 49 1021.2
20260502204204 62 355 0.9 2.6 0.00 0.00 0.00 49 1021.1
20260502203701 61 355 0.9 2.6 0.00 0.00 0.00 48 1021.1
20260502203206 62 355 1.7 2.6 0.00 0.00 0.00 49 1021.1
20260502202658 62 355 1.7 3.5 0.00 0.00 0.00 48 1021.1
20260502202158 62 355 1.7 3.5 0.00 0.00 0.00 48 1021.1
20260502201711 62 355 1.7 4.3 0.00 0.00 0.00 48 1021.2
20260502201213 62 351 2.6 4.3 0.00 0.00 0.00 48 1021.2
20260502200706 62 350 1.7 3.5 0.00 0.00 0.00 48 1021.2
20260502200235 62 350 1.7 3.5 0.00 0.00 0.00 48 1021.2
20260502195704 62 350 1.7 3.5 0.00 0.00 0.00 48 1021.1
20260502195220 62 350 1.7 3.5 0.00 0.00 0.00 47 1021.2
20260502194715 62 349 2.6 3.5 0.00 0.00 0.00 47 1021.2
20260502194217 62 349 2.6 3.5 0.00 0.00 0.00 47 1021.2
20260502193659 62 349 2.6 3.5 0.00 0.00 0.00 47 1021.2
20260502193201 62 348 2.6 3.5 0.00 0.00 0.00 47 1021.1
20260502192654 62 348 2.6 4.3 0.00 0.00 0.00 47 1021.1
20260502192213 62 348 2.6 4.3 0.00 0.00 0.00 47 1021.1
20260502191733 62 341 2.6 3.5 0.00 0.00 0.00 47 1021.0
20260502191201 62 340 1.7 3.5 0.00 0.00 0.00 47 1021.0
20260502190656 62 340 2.6 3.5 0.00 0.00 0.00 46 1021.0
20260502190224 62 340 2.6 3.5 0.00 0.00 0.00 46 1021.0
20260502185657 63 338 2.6 3.5 0.00 0.00 0.00 45 1021.0
20260502185232 63 330 2.6 3.5 0.00 0.00 0.00 45 1021.0
20260502184658 63 330 2.6 3.5 0.00 0.00 0.00 45 1021.0
20260502184156 63 329 2.6 3.5 0.00 0.00 0.00 45 1021.0
20260502183700 64 323 1.7 3.5 0.00 0.00 0.00 45 1020.9
20260502183229 64 323 2.6 3.5 0.00 0.00 0.00 44 1020.9
20260502182700 64 323 2.6 4.3 0.00 0.00 0.00 43 1020.8
20260502182155 64 322 2.6 4.3 0.00 0.00 0.00 44 1020.7
20260502181735 64 322 3.5 4.3 0.00 0.00 0.00 44 1020.7
20260502181205 65 321 3.5 4.3 0.00 0.00 0.00 43 1020.7
20260502180707 65 318 3.5 4.3 0.00 0.00 0.00 44 1020.7
20260502180209 65 317 3.5 4.3 0.00 0.00 0.00 43 1020.6
20260502170211 71 290 1.7 3.5 0.00 0.00 0.00 34 1020.6
20260502164205 71 275 2.6 5.2 0.00 0.00 0.00 33 1020.6
20260502163722 71 276 3.5 6.1 0.00 0.00 0.00 34 1020.8
20260502163203 71 252 3.5 6.1 0.00 0.00 0.00 34 1020.8
20260502162656 71 292 1.7 5.2 0.00 0.00 0.00 35 1020.9
20260502162211 72 292 2.6 5.2 0.00 0.00 0.00 35 1020.9
20260502161723 71 273 2.6 6.1 0.00 0.00 0.00 35 1020.9
20260502161201 71 265 2.6 6.1 0.00 0.00 0.00 34 1020.9
20260502160709 71 263 4.3 6.1 0.00 0.00 0.00 34 1021.0
20260502160234 72 262 3.5 5.2 0.00 0.00 0.00 34 1021.0
20260502152222 71 297 2.6 4.3 0.00 0.00 0.00 33 1021.4
20260502151657 71 275 2.6 5.2 0.00 0.00 0.00 34 1021.4
20260502151157 71 290 2.6 7.8 0.00 0.00 0.00 34 1021.5
20260502150656 71 261 5.2 7.8 0.00 0.00 0.00 33 1021.5
20260502150219 71 315 3.5 6.1 0.00 0.00 0.00 35 1021.5
20260502130706 69 250 4.3 7.0 0.00 0.00 0.00 37 1023.0
20260502130159 69 248 3.5 7.0 0.00 0.00 0.00 38 1023.1
20260502123703 68 246 5.2 8.7 0.00 0.00 0.00 39 1023.5
20260502123154 68 243 3.5 7.8 0.00 0.00 0.00 40 1023.5
20260502122708 68 259 3.5 8.7 0.00 0.00 0.00 42 1023.6
20260502122202 67 285 4.3 8.7 0.00 0.00 0.00 40 1023.8
20260502121701 68 260 4.3 9.6 0.00 0.00 0.00 42 1023.7
20260502121204 67 272 6.1 9.6 0.00 0.00 0.00 42 1023.8
20260502120723 67 259 4.3 8.7 0.00 0.00 0.00 43 1023.8
20260502120203 66 259 4.3 8.7 0.00 0.00 0.00 43 1023.8
20260502115726 66 259 4.3 8.7 0.00 0.00 0.00 42 1023.9
20260502115205 67 244 5.2 7.0 0.00 0.00 0.00 42 1024.0
20260502114707 67 286 5.2 7.8 0.00 0.00 0.00 43 1024.1
20260502114228 67 300 3.5 8.7 0.00 0.00 0.00 43 1024.1
20260502113704 66 254 6.1 8.7 0.00 0.00 0.00 43 1024.1
20260502113208 66 245 4.3 7.8 0.00 0.00 0.00 43 1024.2
20260502112706 67 261 4.3 7.8 0.00 0.00 0.00 42 1024.4
20260502112202 65 275 1.7 7.8 0.00 0.00 0.00 43 1024.4
20260502111719 65 258 5.2 8.7 0.00 0.00 0.00 42 1024.5
20260502111212 65 254 4.3 8.7 0.00 0.00 0.00 44 1024.6
20260502110711 66 249 4.3 8.7 0.00 0.00 0.00 43 1024.7
20260502110159 66 255 3.5 7.8 0.00 0.00 0.00 44 1024.7
20260502105711 66 281 4.3 7.8 0.00 0.00 0.00 42 1024.8
20260502105210 66 277 5.2 8.7 0.00 0.00 0.00 42 1024.9
20260502104711 66 252 4.3 8.7 0.00 0.00 0.00 41 1025.0
20260502104229 66 257 4.3 7.0 0.00 0.00 0.00 40 1025.0
20260502103706 65 273 2.6 7.8 0.00 0.00 0.00 42 1025.2
20260502103157 65 253 2.6 6.1 0.00 0.00 0.00 41 1025.2
20260502102712 65 292 3.5 6.1 0.00 0.00 0.00 43 1025.3
20260502102206 64 252 4.3 8.7 0.00 0.00 0.00 42 1025.3
20260502101700 65 250 4.3 7.8 0.00 0.00 0.00 43 1025.4
20260502101153 64 261 4.3 7.8 0.00 0.00 0.00 43 1025.5
20260502100711 64 250 4.3 7.8 0.00 0.00 0.00 44 1025.5
20260502100156 64 252 2.6 8.7 0.00 0.00 0.00 46 1025.5
20260502091213 63 305 2.6 6.1 0.00 0.00 0.00 52 1026.0
20260502090705 63 296 3.5 6.1 0.00 0.00 0.00 51 1026.0
20260502090211 62 275 3.5 6.1 0.00 0.00 0.00 53 1026.0
20260502071158 59 125 1.7 3.5 0.00 0.00 0.00 65 1026.4
20260502070703 59 125 2.6 3.5 0.00 0.00 0.00 65 1026.5
20260502070207 58 124 0.9 3.5 0.00 0.00 0.00 67 1026.5
20260502065724 58 123 0.9 4.3 0.00 0.00 0.00 67 1026.4
20260502065223 58 124 2.6 4.3 0.00 0.00 0.00 67 1026.4
20260502064731 57 112 1.7 4.3 0.00 0.00 0.00 68 1026.4
20260502064211 57 107 0.0 4.3 0.00 0.00 0.00 68 1026.4
20260502063654 57 83 0.9 5.2 0.00 0.00 0.00 67 1026.4
20260502063212 57 61 0.9 2.6 0.00 0.00 0.00 69 1026.4
20260502062659 56 60 0.0 2.6 0.00 0.00 0.00 71 1026.4
20260502062200 56 59 0.9 2.6 0.00 0.00 0.00 71 1026.4
20260502061157 55 59 0.0 2.6 0.00 0.00 0.00 73 1026.4
20260502060706 55 57 0.0 0.0 0.00 0.00 0.00 73 1026.4
20260502060210 54 57 0.0 0.0 0.00 0.00 0.00 73 1026.4
20260502055728 54 57 0.0 0.0 0.00 0.00 0.00 74 1026.4
20260502055204 54 57 0.0 0.0 0.00 0.00 0.00 74 1026.4
20260502054707 54 57 0.0 0.0 0.00 0.00 0.00 74 1026.4
20260502054201 53 57 0.0 0.0 0.00 0.00 0.00 73 1026.4
20260502053703 53 57 0.0 0.0 0.00 0.00 0.00 73 1026.4